timestamp,wind_dir_avg,wind_spd_max_dir,wind_spd_avg,wind_spd_gust,battery_voltage,lat,long
2018-03-28 00:00:00+00:00,74.0,75.0,1.81,1.89,,47.59359,-54.27349
2018-03-28 00:10:00+00:00,59.0,61.0,1.85,2.01,,47.59359,-54.27349
2018-03-28 00:20:00+00:00,162.0,175.0,1.5,2.09,,47.59359,-54.27349
2018-03-28 00:30:00+00:00,49.0,59.0,0.77,1.09,,47.59359,-54.27349
2018-03-28 00:40:00+00:00,31.0,32.0,2.15,2.3,,47.59359,-54.27349
2018-03-28 00:50:00+00:00,37.0,40.0,2.26,2.78,,47.59359,-54.27349
2018-03-28 01:00:00+00:00,46.0,49.0,1.57,1.86,,47.59359,-54.27349
2018-03-28 01:10:00+00:00,39.0,37.0,2.39,2.67,,47.59359,-54.27349
2018-03-28 01:20:00+00:00,22.0,20.0,2.48,2.81,,47.59359,-54.27349
2018-03-28 01:30:00+00:00,25.0,25.0,3.06,3.37,,47.59359,-54.27349
2018-03-28 01:40:00+00:00,40.0,42.0,3.23,3.57,,47.59359,-54.27349
2018-03-28 01:50:00+00:00,48.0,45.0,2.72,2.88,,47.59359,-54.27349
2018-03-28 02:00:00+00:00,55.0,56.0,3.05,3.5,,47.59359,-54.27349
2018-03-28 02:10:00+00:00,67.0,67.0,3.04,3.27,,47.59359,-54.27349
2018-03-28 02:20:00+00:00,56.0,54.0,2.72,2.91,,47.59359,-54.27349
2018-03-28 02:30:00+00:00,60.0,59.0,3.19,3.38,,47.59359,-54.27349
2018-03-28 02:40:00+00:00,40.0,43.0,2.84,3.66,,47.59359,-54.27349
2018-03-28 02:50:00+00:00,36.0,36.0,4.27,4.5,,47.59359,-54.27349
2018-03-28 03:00:00+00:00,43.0,44.0,4.46,4.81,,47.59359,-54.27349
2018-03-28 03:10:00+00:00,36.0,34.0,3.24,3.67,,47.59359,-54.27349
2018-03-28 03:20:00+00:00,71.0,70.0,3.35,4.03,,47.59359,-54.27349
2018-03-28 03:30:00+00:00,67.0,62.0,4.49,5.0,,47.59359,-54.27349
2018-03-28 03:40:00+00:00,62.0,59.0,4.47,4.76,,47.59359,-54.27349
2018-03-28 03:50:00+00:00,67.0,64.0,4.48,4.79,,47.59359,-54.27349
2018-03-28 04:00:00+00:00,62.0,57.0,4.64,4.95,,47.59359,-54.27349
2018-03-28 04:10:00+00:00,62.0,58.0,5.02,5.62,,47.59359,-54.27349
2018-03-28 04:20:00+00:00,70.0,68.0,4.87,5.49,,47.59359,-54.27349
2018-03-28 04:30:00+00:00,70.0,73.0,5.25,5.83,,47.59359,-54.27349
2018-03-28 04:40:00+00:00,68.0,69.0,5.54,6.24,,47.59359,-54.27349
2018-03-28 04:50:00+00:00,71.0,72.0,5.85,6.59,,47.59359,-54.27349
2018-03-28 05:00:00+00:00,67.0,69.0,6.63,7.35,,47.59359,-54.27349
2018-03-28 05:10:00+00:00,68.0,66.0,5.31,5.78,,47.59359,-54.27349
2018-03-28 05:20:00+00:00,65.0,65.0,5.57,6.34,,47.59359,-54.27349
2018-03-28 05:30:00+00:00,68.0,69.0,5.55,6.05,,47.59359,-54.27349
2018-03-28 05:40:00+00:00,63.0,66.0,5.99,6.59,,47.59359,-54.27349
2018-03-28 05:50:00+00:00,52.0,52.0,6.81,7.35,,47.59359,-54.27349
2018-03-28 06:00:00+00:00,49.0,51.0,6.21,7.15,,47.59359,-54.27349
2018-03-28 06:10:00+00:00,62.0,61.0,5.89,6.64,,47.59359,-54.27349
2018-03-28 06:20:00+00:00,62.0,61.0,5.05,5.45,,47.59359,-54.27349
2018-03-28 06:30:00+00:00,66.0,65.0,4.46,5.12,,47.59359,-54.27349
2018-03-28 06:40:00+00:00,53.0,53.0,5.13,5.72,,47.59359,-54.27349
2018-03-28 06:50:00+00:00,56.0,52.0,4.98,5.54,,47.59359,-54.27349
2018-03-28 07:00:00+00:00,60.0,55.0,4.64,5.14,,47.59359,-54.27349
2018-03-28 07:10:00+00:00,55.0,57.0,4.09,4.67,,47.59359,-54.27349
2018-03-28 07:20:00+00:00,58.0,57.0,4.58,4.93,,47.59359,-54.27349
2018-03-28 07:30:00+00:00,72.0,77.0,4.8,6.04,,47.59359,-54.27349
2018-03-28 07:40:00+00:00,65.0,62.0,4.0,4.53,,47.59359,-54.27349
2018-03-28 07:50:00+00:00,55.0,51.0,5.02,5.5,,47.59359,-54.27349
2018-03-28 08:00:00+00:00,71.0,73.0,5.42,6.12,,47.59359,-54.27349
2018-03-28 08:10:00+00:00,77.0,75.0,5.66,7.11,,47.59359,-54.27349
2018-03-28 08:20:00+00:00,71.0,72.0,6.94,7.94,,47.59359,-54.27349
2018-03-28 08:30:00+00:00,71.0,69.0,7.12,8.07,,47.59359,-54.27349
2018-03-28 08:40:00+00:00,84.0,84.0,6.35,7.64,,47.59359,-54.27349
2018-03-28 08:50:00+00:00,80.0,79.0,6.65,8.48,,47.59359,-54.27349
2018-03-28 09:00:00+00:00,88.0,77.0,4.02,5.69,,47.59359,-54.27349
2018-03-28 09:10:00+00:00,77.0,78.0,7.0,7.93,,47.59359,-54.27349
2018-03-28 09:20:00+00:00,75.0,81.0,7.07,8.64,,47.59359,-54.27349
2018-03-28 09:30:00+00:00,77.0,76.0,7.09,7.69,,47.59359,-54.27349
2018-03-28 09:40:00+00:00,81.0,79.0,6.71,7.65,,47.59359,-54.27349
2018-03-28 09:50:00+00:00,87.0,92.0,5.39,7.5,,47.59359,-54.27349
2018-03-28 10:00:00+00:00,91.0,78.0,4.45,6.45,,47.59359,-54.27349
2018-03-28 10:10:00+00:00,94.0,112.0,5.96,10.08,,47.59359,-54.27349
2018-03-28 10:20:00+00:00,93.0,101.0,6.11,8.85,,47.59359,-54.27349
2018-03-28 10:30:00+00:00,94.0,96.0,5.31,8.54,,47.59359,-54.27349
2018-03-28 10:40:00+00:00,88.0,86.0,5.85,8.81,,47.59359,-54.27349
2018-03-28 10:50:00+00:00,88.0,93.0,7.42,9.99,,47.59359,-54.27349
2018-03-28 11:00:00+00:00,84.0,83.0,8.01,9.82,,47.59359,-54.27349
2018-03-28 11:10:00+00:00,86.0,83.0,6.71,8.36,,47.59359,-54.27349
2018-03-28 11:20:00+00:00,81.0,86.0,6.31,7.92,,47.59359,-54.27349
2018-03-28 11:30:00+00:00,83.0,80.0,8.07,13.38,,47.59359,-54.27349
2018-03-28 11:40:00+00:00,80.0,84.0,8.58,9.56,,47.59359,-54.27349
2018-03-28 11:50:00+00:00,80.0,83.0,9.44,10.9,,47.59359,-54.27349
2018-03-28 12:00:00+00:00,79.0,85.0,7.76,8.84,,47.59359,-54.27349
2018-03-28 12:10:00+00:00,78.0,82.0,8.16,9.41,,47.59359,-54.27349
2018-03-28 12:20:00+00:00,78.0,82.0,8.1,9.64,,47.59359,-54.27349
2018-03-28 12:30:00+00:00,77.0,77.0,8.46,9.63,,47.59359,-54.27349
2018-03-28 12:40:00+00:00,76.0,78.0,9.16,10.06,,47.59359,-54.27349
2018-03-28 13:40:00+00:00,72.0,73.0,8.12,9.57,,47.59359,-54.27349
2018-03-28 13:50:00+00:00,70.0,73.0,9.26,10.19,,47.59359,-54.27349
2018-03-28 14:00:00+00:00,57.0,67.0,8.75,10.77,,47.59359,-54.27349
2018-03-28 14:10:00+00:00,65.0,63.0,9.31,11.13,,47.59359,-54.27349
2018-03-28 14:20:00+00:00,68.0,62.0,9.48,10.88,,47.59359,-54.27349
2018-03-28 14:30:00+00:00,73.0,74.0,9.37,10.66,,47.59359,-54.27349
2018-03-28 14:40:00+00:00,72.0,78.0,8.47,10.72,,47.59359,-54.27349
2018-03-28 14:50:00+00:00,70.0,71.0,9.06,9.93,,47.59359,-54.27349
2018-03-28 15:00:00+00:00,73.0,73.0,9.4,10.22,,47.59359,-54.27349
2018-03-28 15:10:00+00:00,71.0,73.0,8.78,11.58,,47.59359,-54.27349
2018-03-28 15:20:00+00:00,70.0,70.0,8.89,9.82,,47.59359,-54.27349
2018-03-28 15:30:00+00:00,71.0,71.0,8.89,9.82,,47.59359,-54.27349
2018-03-28 15:40:00+00:00,70.0,67.0,9.16,10.05,,47.59359,-54.27349
2018-03-28 15:50:00+00:00,69.0,67.0,8.6,9.67,,47.59359,-54.27349
2018-03-28 16:00:00+00:00,64.0,63.0,8.21,9.23,,47.59359,-54.27349
2018-03-28 16:10:00+00:00,67.0,67.0,8.84,9.97,,47.59359,-54.27349
2018-03-28 16:20:00+00:00,62.0,64.0,6.77,7.72,,47.59359,-54.27349
2018-03-28 16:30:00+00:00,63.0,62.0,6.83,7.54,,47.59359,-54.27349
2018-03-28 16:40:00+00:00,69.0,68.0,7.23,7.95,,47.59359,-54.27349
2018-03-28 16:50:00+00:00,72.0,73.0,7.17,8.21,,47.59359,-54.27349
2018-03-28 17:00:00+00:00,72.0,71.0,6.26,6.93,,47.59359,-54.27349
2018-03-28 17:10:00+00:00,75.0,79.0,5.42,6.52,,47.59359,-54.27349
2018-03-28 17:20:00+00:00,76.0,75.0,5.51,6.19,,47.59359,-54.27349
2018-03-28 17:30:00+00:00,87.0,75.0,5.99,8.33,,47.59359,-54.27349
2018-03-28 17:40:00+00:00,82.0,86.0,5.31,6.79,,47.59359,-54.27349
2018-03-28 17:50:00+00:00,82.0,86.0,5.78,8.18,,47.59359,-54.27349
2018-03-28 18:00:00+00:00,74.0,74.0,5.96,6.39,,47.59359,-54.27349
2018-03-28 18:10:00+00:00,74.0,77.0,6.88,7.54,,47.59359,-54.27349
2018-03-28 18:20:00+00:00,71.0,70.0,5.85,6.59,,47.59359,-54.27349
2018-03-28 18:30:00+00:00,64.0,63.0,7.02,8.15,,47.59359,-54.27349
2018-03-28 18:40:00+00:00,67.0,70.0,6.05,7.07,,47.59359,-54.27349
2018-03-28 18:50:00+00:00,72.0,73.0,6.4,7.14,,47.59359,-54.27349
2018-03-28 19:00:00+00:00,78.0,76.0,5.12,5.8,,47.59359,-54.27349
2018-03-28 19:10:00+00:00,72.0,73.0,4.99,5.24,,47.59359,-54.27349
2018-03-28 19:20:00+00:00,58.0,61.0,4.96,5.32,,47.59359,-54.27349
2018-03-28 19:30:00+00:00,66.0,68.0,5.48,5.78,,47.59359,-54.27349
2018-03-28 19:40:00+00:00,63.0,67.0,5.52,6.65,,47.59359,-54.27349
2018-03-28 19:50:00+00:00,55.0,56.0,5.33,5.82,,47.59359,-54.27349
2018-03-28 20:00:00+00:00,58.0,54.0,4.12,4.66,,47.59359,-54.27349
2018-03-28 20:10:00+00:00,50.0,52.0,4.82,5.14,,47.59359,-54.27349
2018-03-28 20:20:00+00:00,39.0,39.0,4.91,5.41,,47.59359,-54.27349
2018-03-28 20:30:00+00:00,49.0,52.0,5.62,6.14,,47.59359,-54.27349
2018-03-28 20:40:00+00:00,53.0,52.0,5.95,6.57,,47.59359,-54.27349
2018-03-28 20:50:00+00:00,45.0,48.0,4.75,5.21,,47.59359,-54.27349
2018-03-28 21:00:00+00:00,55.0,53.0,5.9,6.36,,47.59359,-54.27349
2018-03-28 21:10:00+00:00,52.0,53.0,4.89,5.45,,47.59359,-54.27349
2018-03-28 21:20:00+00:00,49.0,52.0,4.92,5.63,,47.59359,-54.27349
2018-03-28 21:30:00+00:00,53.0,58.0,4.82,5.89,,47.59359,-54.27349
2018-03-28 21:40:00+00:00,46.0,47.0,4.93,5.2,,47.59359,-54.27349
2018-03-28 21:50:00+00:00,45.0,43.0,5.53,5.81,,47.59359,-54.27349
2018-03-28 22:00:00+00:00,49.0,47.0,4.55,5.1,,47.59359,-54.27349
2018-03-28 22:10:00+00:00,40.0,41.0,5.0,5.51,,47.59359,-54.27349
2018-03-28 22:20:00+00:00,54.0,53.0,4.9,5.4,,47.59359,-54.27349
2018-03-28 22:30:00+00:00,48.0,46.0,5.28,5.63,,47.59359,-54.27349
2018-03-28 22:40:00+00:00,48.0,50.0,4.71,5.1,,47.59359,-54.27349
2018-03-28 22:50:00+00:00,53.0,55.0,3.56,4.03,,47.59359,-54.27349
2018-03-28 23:00:00+00:00,51.0,50.0,3.16,3.76,,47.59359,-54.27349
2018-03-28 23:10:00+00:00,55.0,54.0,3.31,3.59,,47.59359,-54.27349
2018-03-28 23:20:00+00:00,63.0,61.0,3.39,3.69,,47.59359,-54.27349
2018-03-28 23:30:00+00:00,45.0,46.0,3.43,3.82,,47.59359,-54.27349
2018-03-28 23:40:00+00:00,53.0,52.0,2.83,3.24,,47.59359,-54.27349
2018-03-28 23:50:00+00:00,56.0,56.0,2.84,3.03,,47.59359,-54.27349
